{"data":{"norad_id":66235,"epoch":"2026-09-20T06:29:02.930784Z","epoch_age_seconds":116565,"freshness":"FRESH","line1":"1 66235U 25245B   26263.27017281  .00010036  00000+0  33466-3 0  9991","line2":"2 66235  53.1581  98.9577 0001573  91.0398 269.0784 15.31708155 51017","mean_motion":15.31708155,"eccentricity":0.0001573,"inclination_deg":53.1581,"raan_deg":98.9577,"arg_perigee_deg":91.0398,"mean_anomaly_deg":269.0784,"bstar":0.00033466,"rev_number":5101,"period_min":94.012687423473,"perigee_km":469.63836117539,"apogee_km":471.79301023032,"semimajor_km":6848.8526857029,"source":"CELESTRAK","updated_at":"2026-09-21T09:00:35.845708Z"}}